Location: Unspecified
(0.0000°N, 0.0000°E)
Time: 00:57:35
(UTC+00:00)

Explorer 25 - Pass Details

Date: 08 March 2026
Orbit: 523 x 2264 km, 81.3° (Epoch: 14 April)

Event Time Altitude Azimuth Distance (km) Brightness Sun altitude
Rises 18:34:51 0° 177° (S) 5,841 12.6 -6.0°
Reaches altitude 10° 18:38:36 10° 174° (S) 4,805 12.1 -6.9°
Maximum altitude 18:51:09 64° 95° (E) 2,140 10.0 -10.1°
Drops below altitude 10° 19:00:50 10° 16° (NNE) 3,782 11.3 -12.5°
Sets 19:03:25 0° 13° (NNE) 4,560 11.8 -13.1°
